Wind_Speed
42 43 43 44 45 45 46 46 46 47 48 49 49 50 51 51 52 51 52 52 52 52 52 52 52 53 54 55 55 55 55 55 54 53 53 53 54 54 55 55 55 56 57
42 42 43 43 44 45 46 46 47 48 48 49 50 50 51 51 51 51 51 52 52 52 52 51 52 53 53 54 54 54 54 54 54 52 52 53 53 54 55 55 54 55 56
42 42 43 44 44 45 46 46 47 48 49 50 50 51 51 51 51 50 51 52 52 52 52 52 52 52 52 52 53 53 53 53 53 52 52 52 52 53 54 54 53 53 54
42 42 43 43 44 45 46 46 47 48 49 50 50 51 50 50 50 51 51 51 51 52 52 52 52 51 51 52 52 53 53 53 53 52 51 51 51 52 53 53 52 52 51
42 42 43 44 44 45 46 46 47 48 49 49 49 49 49 50 50 50 50 50 50 51 50 51 51 51 51 51 52 52 53 53 53 52 51 50 50 50 51 50 50 50 49
42 43 44 44 44 45 46 47 48 48 48 48 48 48 48 49 49 49 49 49 49 49 49 49 50 51 51 51 51 52 53 53 52 51 51 50 50 50 49 49 49 48 48
43 43 44 44 45 46 46 47 47 47 47 47 47 47 47 47 47 47 48 48 47 47 47 47 48 49 50 50 50 50 51 51 52 51 51 50 50 50 49 48 48 48 47
42 43 44 44 45 46 47 47 46 46 46 46 46 46 45 46 46 47 47 46 46 47 47 47 47 47 48 48 48 48 49 49 50 49 49 49 49 49 48 48 47 46 47
41 42 43 44 45 46 46 45 45 46 46 45 45 45 45 45 45 46 46 45 45 45 46 46 46 46 47 47 47 46 46 47 48 48 48 48 48 48 48 48 46 45 45
41 42 43 43 44 44 44 44 44 45 45 45 45 45 45 45 45 45 45 45 44 44 44 45 45 44 44 45 46 45 45 46 47 47 48 48 47 47 47 46 46 45 44
42 42 42 43 43 43 43 43 43 43 44 44 44 44 44 44 44 44 44 44 43 42 42 42 43 43 43 43 44 44 44 45 45 45 46 46 46 45 45 45 45 44 44
42 42 42 42 42 42 42 42 42 42 42 42 43 43 43 43 43 43 43 43 42 42 41 42 42 42 42 42 42 42 42 43 43 43 43 44 44 43 44 44 43 43 43
40 40 40 40 40 40 40 40 40 41 41 42 42 41 41 41 41 41 42 42 42 41 41 40 40 40 40 41 41 41 42 42 42 42 42 42 42 42 42 43 42 42 42
38 39 39 39 39 39 39 39 39 40 40 40 40 39 39 39 40 40 41 40 40 40 39 39 39 39 39 39 39 39 39 40 40 40 40 40 40 41 41 41 42 42 41
37 37 37 37 37 37 38 38 38 39 39 39 38 38 38 38 38 39 39 38 38 38 38 37 37 37 37 37 37 37 37 38 38 38 38 39 39 39 39 40 40 41 40
37 37 37 37 37 37 36 36 37 37 38 38 37 37 37 37 37 37 37 37 37 37 37 36 36 35 35 35 34 34 34 34 35 35 35 36 37 37 37 37 38 39 39
36 35 35 35 36 36 36 36 35 36 36 36 36 36 36 35 35 35 36 36 35 35 35 35 34 34 34 33 33 32 32 32 32 32 33 33 34 34 34 35 36 35 36
34 34 34 34 34 34 34 35 34 34 34 34 34 35 35 35 34 34 34 34 34 34 34 33 33 33 33 33 32 31 31 30 30 30 31 31 32 31 31 32 32 33 33
33 33 33 33 33 34 34 33 33 33 33 33 33 33 34 34 33 33 33 34 34 33 33 34 33 33 32 32 31 31 30 29 29 29 29 29 29 29 29 30 30 30 31
33 32 33 33 33 33 32 32 32 32 32 32 32 32 32 32 32 32 32 32 33 33 33 33 33 32 31 31 30 30 29 29 29 29 29 29 29 28 28 28 28 28 29
32 32 32 32 32 32 32 32 31 31 31 31 31 31 31 31 31 31 31 31 32 32 32 31 31 30 30 30 30 29 29 29 29 29 29 29 28 27 27 26 26 26 27
31 31 31 31 31 31 31 31 30 30 30 30 30 30 29 29 29 29 30 29 30 30 29 29 29 29 29 29 29 28 28 28 28 28 28 28 28 27 26 26 25 25 26
31 31 31 31 31 30 30 30 30 30 30 30 29 29 28 28 28 27 27 27 27 27 27 27 28 28 27 27 27 27 26 27 27 28 28 28 27 26 26 25 25 25 25
31 31 31 30 30 30 30 29 29 29 29 28 28 27 27 27 26 26 26 26 26 26 26 26 26 25 25 25 25 25 25 25 26 27 27 27 26 26 25 24 24 25 25
30 30 30 30 30 29 29 29 28 28 28 28 27 27 26 26 26 25 25 25 26 25 25 25 24 24 23 23 23 23 24 24 25 25 26 26 26 25 25 24 24 24 24
30 30 30 29 29 29 28 28 27 27 27 27 26 26 26 26 25 25 25 25 24 24 24 23 23 22 22 21 21 21 22 22 23 24 25 25 25 25 25 24 24 24 24
Wind_Direction
273 272 271 271 271 271 272 273 273 274 275 276 276 276 276 276 277 276 275 275 275 276 275 274 273 272 272 271 271 271 270 268 267 265 265 264 263 263 263 263 263 262 260
274 274 273 272 272 272 272 273 274 275 276 277 277 277 278 278 277 276 276 276 275 275 275 274 273 272 272 271 270 269 269 268 267 266 265 264 264 264 264 264 263 262 260
274 274 274 273 273 273 273 273 275 276 277 277 278 278 278 278 277 277 276 276 276 275 275 274 274 273 272 271 270 269 268 267 267 267 265 264 264 264 264 264 263 262 260
274 274 274 274 275 275 275 276 276 277 278 278 278 278 278 278 277 278 278 277 277 276 275 274 273 273 272 271 270 269 268 267 266 266 265 264 264 264 264 264 263 261 259
275 275 275 276 276 277 277 277 278 279 280 279 279 278 278 278 278 278 278 278 277 277 276 275 274 273 273 272 271 269 269 267 266 265 264 264 264 264 264 263 262 260 259
277 276 277 277 277 278 278 279 280 280 280 279 279 278 278 279 279 279 279 279 278 278 276 275 274 273 273 272 271 270 269 268 266 265 264 263 263 262 262 262 262 262 260
278 277 277 278 279 279 280 280 280 280 280 280 279 279 279 279 279 280 280 279 278 277 276 276 275 274 273 271 271 270 269 268 266 265 264 263 262 261 261 260 261 262 261
279 279 279 279 280 280 280 280 280 280 281 281 280 279 278 279 279 280 280 280 279 278 277 277 277 275 273 272 271 271 269 268 266 265 265 263 261 260 261 261 261 261 259
280 280 280 280 281 281 281 280 280 280 281 281 280 279 278 278 279 280 280 280 280 279 278 278 277 276 274 273 272 271 269 268 265 263 263 262 260 260 260 261 261 260 260
280 281 281 281 282 282 281 280 280 280 281 281 281 279 278 279 280 280 280 280 281 280 279 278 277 276 274 273 273 271 269 267 264 263 262 261 260 260 260 260 260 260 261
282 282 282 282 282 282 281 281 281 281 282 282 282 280 279 279 280 280 280 281 281 281 280 278 278 277 276 275 274 272 269 266 264 263 262 260 259 260 259 259 259 259 260
283 283 282 283 283 283 281 280 280 282 282 282 282 281 280 280 280 280 281 281 281 281 280 279 278 278 276 275 274 272 269 266 265 264 262 260 259 258 257 258 258 259 259
284 284 284 284 284 283 282 281 281 282 282 283 283 281 280 280 280 281 281 281 281 281 280 279 279 278 277 276 274 272 269 266 265 264 261 260 258 257 257 257 257 258 259
283 284 284 284 284 283 283 282 283 283 283 283 283 281 280 280 280 281 281 281 280 281 281 280 280 279 278 276 274 272 269 267 265 263 261 259 257 257 257 256 256 256 256
284 284 283 283 284 284 285 284 284 284 284 284 283 282 281 280 280 280 280 280 280 280 280 280 280 279 277 276 274 273 270 268 265 263 261 259 257 257 256 255 256 256 255
284 284 283 282 283 284 284 285 285 285 285 285 284 283 283 281 280 280 280 281 281 281 280 280 279 279 278 277 275 272 270 267 264 261 260 258 257 257 257 256 256 256 255
284 284 283 283 284 285 285 286 286 287 287 286 286 285 284 283 282 281 280 281 281 282 281 280 279 278 278 277 275 272 270 267 263 260 259 258 258 257 256 256 256 256 254
285 285 285 285 286 286 286 287 287 287 287 287 286 286 286 284 283 282 281 281 282 282 281 280 280 278 277 275 274 272 269 266 263 260 259 258 257 257 257 257 257 257 253
286 286 286 286 286 287 288 288 289 289 289 288 288 287 287 286 285 283 282 281 282 282 281 280 279 278 275 274 273 270 267 264 262 259 258 257 256 256 257 256 256 256 253
286 286 286 286 286 288 289 290 290 290 290 290 289 289 288 286 285 283 282 282 282 282 282 281 279 277 274 272 271 269 266 263 260 257 256 255 254 255 256 255 255 255 253
287 287 287 287 287 288 289 289 290 290 290 290 290 290 288 287 286 284 283 283 283 283 281 280 278 276 273 271 269 268 265 261 259 256 254 253 253 254 255 255 254 254 252
289 289 288 288 289 289 288 289 289 289 290 290 291 291 290 288 287 286 285 284 283 282 281 280 278 276 274 270 268 266 263 260 257 254 252 251 251 252 253 254 254 254 250
290 289 289 289 289 288 288 288 289 290 290 291 291 290 290 289 289 288 287 285 284 283 282 281 279 277 273 269 266 263 261 259 256 252 250 249 250 251 253 253 253 252 249
291 290 290 289 289 288 288 288 289 290 291 291 290 290 290 290 289 288 287 287 285 284 284 283 281 278 273 269 265 262 260 259 255 250 247 246 247 249 251 251 251 250 248
293 291 290 290 289 288 288 288 289 290 291 291 290 290 290 290 290 289 288 288 287 285 284 283 280 276 272 269 265 263 261 258 253 249 246 245 246 248 248 249 249 248 246
294 293 292 291 290 289 288 288 288 290 291 291 291 290 290 290 290 290 290 289 287 285 284 282 279 276 272 268 265 263 261 257 251 247 245 245 247 247 247 248 249 248 246
Height
5602 5601 5600 5599 5598 5598 5597 5597 5596 5595 5594 5593 5591 5589 5588 5586 5584 5582 5581 5580 5579 5578 5576 5575 5574 5573 5572 5571 5570 5569 5569 5569 5571 5573 5572 5572 5573 5574 5575 5576 5577 5578 5580
5590 5589 5588 5587 5586 5585 5584 5583 5583 5581 5580 5578 5577 5575 5573 5571 5569 5568 5566 5565 5564 5563 5561 5560 5559 5557 5556 5555 5554 5554 5553 5553 5554 5556 5556 5557 5557 5558 5559 5559 5560 5561 5563
5578 5577 5576 5574 5573 5572 5571 5570 5569 5568 5566 5564 5562 5560 5559 5557 5555 5553 5552 5550 5549 5547 5546 5545 5543 5542 5541 5540 5539 5538 5538 5538 5538 5539 5541 5541 5542 5542 5542 5543 5544 5545 5546
5566 5565 5563 5562 5560 5559 5558 5557 5555 5554 5552 5550 5548 5546 5544 5542 5541 5539 5537 5535 5534 5532 5530 5529 5528 5526 5525 5524 5523 5523 5522 5522 5522 5523 5525 5526 5526 5526 5526 5527 5528 5529 5530
5554 5552 5551 5549 5547 5546 5545 5543 5542 5540 5538 5536 5534 5532 5530 5528 5526 5524 5522 5521 5519 5517 5515 5514 5512 5511 5510 5508 5507 5507 5507 5507 5507 5508 5509 5510 5510 5510 5511 5511 5513 5514 5516
5542 5540 5538 5536 5535 5533 5532 5530 5528 5526 5524 5522 5520 5518 5516 5514 5512 5509 5507 5506 5504 5502 5500 5498 5497 5495 5494 5493 5492 5491 5491 5491 5492 5492 5494 5494 5495 5496 5496 5497 5498 5500 5502
5530 5528 5526 5524 5522 5520 5519 5517 5515 5512 5510 5508 5506 5504 5502 5500 5497 5495 5492 5490 5489 5487 5485 5483 5482 5480 5478 5477 5476 5475 5475 5475 5476 5477 5478 5479 5480 5482 5482 5484 5484 5485 5487
5518 5516 5513 5512 5510 5507 5505 5503 5501 5499 5497 5495 5492 5490 5488 5486 5483 5481 5479 5476 5474 5472 5470 5469 5467 5465 5463 5462 5462 5461 5460 5460 5461 5462 5464 5465 5465 5466 5467 5469 5470 5472 5473
5506 5504 5502 5499 5497 5495 5492 5490 5488 5486 5484 5481 5479 5477 5475 5472 5470 5467 5465 5463 5461 5459 5456 5454 5452 5451 5449 5448 5447 5447 5447 5446 5446 5446 5448 5449 5451 5452 5453 5454 5456 5457 5459
5494 5492 5489 5487 5484 5482 5479 5477 5475 5473 5470 5468 5466 5463 5461 5459 5457 5454 5451 5449 5447 5445 5443 5440 5438 5437 5435 5433 5432 5432 5432 5432 5432 5432 5434 5435 5437 5438 5439 5440 5442 5443 5445
5482 5480 5477 5474 5472 5469 5467 5464 5462 5460 5458 5455 5452 5450 5448 5446 5443 5441 5438 5436 5434 5432 5430 5428 5425 5423 5421 5420 5419 5418 5418 5418 5418 5419 5420 5421 5423 5425 5426 5427 5428 5429 5431
5470 5467 5464 5462 5459 5457 5454 5452 5449 5447 5445 5442 5439 5437 5434 5432 5430 5428 5425 5423 5421 5419 5417 5415 5413 5410 5409 5407 5406 5405 5405 5404 5405 5405 5406 5408 5410 5412 5413 5414 5415 5417 5418
5458 5455 5452 5450 5447 5444 5442 5439 5437 5434 5432 5429 5426 5424 5422 5419 5417 5415 5413 5410 5408 5406 5404 5402 5400 5398 5396 5395 5394 5393 5392 5392 5392 5393 5394 5396 5397 5399 5400 5402 5403 5405 5406
5446 5443 5441 5438 5435 5433 5430 5427 5425 5422 5419 5417 5414 5412 5409 5407 5405 5403 5400 5398 5396 5393 5392 5390 5388 5386 5384 5383 5382 5381 5380 5380 5380 5381 5382 5384 5385 5387 5388 5390 5392 5393 5395
5435 5432 5430 5427 5424 5421 5419 5416 5413 5410 5407 5405 5402 5400 5398 5396 5393 5391 5388 5386 5384 5382 5379 5378 5376 5374 5373 5371 5370 5369 5369 5369 5369 5370 5371 5372 5373 5375 5377 5378 5380 5381 5383
5423 5421 5418 5416 5413 5410 5408 5405 5401 5399 5396 5393 5390 5388 5386 5384 5381 5379 5377 5374 5372 5370 5368 5367 5365 5363 5362 5360 5359 5358 5357 5357 5358 5358 5359 5361 5362 5364 5365 5367 5368 5370 5372
5412 5410 5407 5405 5402 5400 5397 5394 5391 5388 5385 5382 5379 5377 5374 5372 5370 5367 5365 5363 5361 5359 5357 5355 5354 5353 5351 5350 5349 5348 5348 5347 5347 5348 5349 5350 5351 5353 5355 5356 5358 5359 5361
5402 5399 5397 5394 5392 5389 5386 5383 5380 5378 5375 5372 5369 5366 5363 5361 5358 5356 5354 5352 5350 5348 5346 5345 5344 5342 5341 5340 5339 5338 5338 5338 5338 5339 5340 5341 5342 5343 5345 5346 5347 5349 5350
5391 5389 5386 5384 5381 5379 5376 5373 5370 5367 5364 5362 5359 5356 5353 5350 5348 5345 5343 5342 5340 5338 5336 5335 5333 5332 5331 5330 5329 5329 5329 5329 5329 5330 5331 5332 5333 5334 5335 5337 5338 5339 5340
5381 5379 5376 5374 5371 5368 5366 5363 5360 5357 5354 5351 5349 5346 5343 5340 5338 5335 5333 5331 5330 5328 5326 5324 5323 5321 5321 5320 5320 5319 5319 5320 5320 5321 5322 5323 5324 5326 5327 5328 5329 5330 5332
5371 5369 5366 5363 5361 5358 5356 5353 5350 5348 5345 5342 5339 5336 5333 5330 5328 5326 5323 5321 5319 5317 5316 5314 5313 5312 5311 5310 5310 5310 5310 5310 5311 5312 5313 5315 5316 5317 5319 5320 5321 5322 5324
5361 5359 5356 5353 5351 5348 5346 5343 5341 5338 5335 5332 5329 5326 5323 5321 5318 5316 5314 5312 5309 5307 5306 5304 5303 5302 5301 5301 5301 5301 5301 5301 5302 5303 5305 5306 5308 5309 5311 5312 5314 5315 5317
5351 5349 5346 5343 5341 5338 5336 5334 5331 5328 5326 5323 5320 5317 5314 5312 5309 5307 5305 5302 5300 5298 5297 5295 5294 5292 5292 5291 5291 5291 5292 5293 5293 5295 5296 5298 5300 5301 5303 5304 5306 5307 5309
5341 5339 5336 5333 5331 5329 5326 5324 5321 5319 5316 5313 5311 5308 5306 5303 5301 5298 5296 5294 5292 5290 5288 5286 5285 5283 5283 5282 5282 5283 5283 5284 5285 5286 5288 5290 5292 5294 5295 5297 5298 5300 5301
5331 5329 5326 5323 5321 5319 5316 5314 5312 5309 5307 5304 5302 5299 5297 5295 5292 5290 5288 5285 5283 5281 5279 5278 5276 5275 5274 5274 5274 5274 5275 5275 5276 5278 5280 5282 5284 5286 5288 5289 5291 5292 5294
5322 5319 5316 5314 5311 5309 5307 5305 5302 5300 5298 5295 5293 5291 5288 5286 5284 5281 5279 5277 5275 5273 5271 5269 5268 5267 5266 5266 5266 5266 5267 5267 5269 5270 5272 5274 5276 5278 5280 5281 5283 5284 5286